TIME,DELAY(SENSOR),PRES,T(CTD),SAL,OXYGEN,RAWTEMP,T(OPTODE),TCPHASE,FLUOR,BETA(BETA700),BETA(BETA412),BETA(BETA440),CDOM,C(CSC),ED(ED412.40),ED(ED444.00),ED(ED489.70),ED(ED554.30),LU(LU411.80),LU(LU443.40),LU(LU489.60),LU(LU554.10),COMP,TILTX,TILTX(TILTY),CHECK
1341869166,5810,497.2500000000000000,7.2438998222351070,34.1869010925293000,75.0428771972656200,580.0413208007812000,7.2271389961242680,49.2154693603515600,52,108,87,81,79,15367,2147749348,2147422646,2148002011,2147874486,2147627309,2147088064,2148241234,2147206208,1189,4,13,35783
1341869281,5810,486.2600097656250000,7.3650999069213870,34.1799011230468750,77.5233993530273400,576.2363281250000000,7.3492851257324220,48.8600311279296900,52,105,89,79,79,15367,2147748736,2147420690,2148002477,2147873965,2147629193,2147085778,2148236589,2147207378,335,4,13,39118
1341869408,5806,475.1700134277344000,7.5506000518798830,34.1753005981445300,84.6853408813476600,570.5921020507812000,7.5302329063415530,47.9284782409668000,51,108,89,79,79,15366,2147743762,2147421906,2148001837,2147875081,2147627547,2147084452,2148239058,2147207652,753,5,13,34818
1341869538,5809,465.1700134277344000,7.6110000610351560,34.1743011474609400,88.2688064575195300,568.4417114257812000,7.5991001129150390,47.4865188598632800,51,107,90,81,79,15361,2147744822,2147420224,2148001563,2147873901,2147627254,2147088877,2148239634,2147207542,1142,4,13,64926
1341869713,5805,454.1300048828125000,7.7975001335144040,34.1702995300293000,95.5013809204101600,562.7852172851562000,7.7800598144531250,46.5926704406738300,51,109,91,82,79,15363,2147743744,2147419172,2148000036,2147873892,2147624265,2147091190,2148235209,2147207414,507,4,13,10726
1341869874,5809,442.5899963378906000,7.9903998374938965,34.1669006347656250,100.3032989501953100,556.6085205078125000,7.9773449897766110,45.9797706604003900,52,106,91,80,78,15363,2147745435,2147421302,2148000548,2147874477,2147625024,2147090523,2148236937,2147207707,3554,4,13,15783
1341870013,5809,430.9200134277344000,8.3193998336792000,34.1526985168457000,110.2548980712890600,546.6979980468750000,8.2932214736938480,44.7869491577148440,51,109,93,81,77,15366,2147744237,2147421010,2148001307,2147874194,2147623213,2147092992,2148235273,2147206189,3463,4,13,8970
1341870138,5804,418.2399902343750000,8.5153999328613280,34.1525993347168000,121.3524017333984400,539.8928833007812000,8.5096530914306640,43.5866508483886700,50,108,89,81,76,15361,2147745993,2147420324,2148002697,2147874797,2147622125,2147088722,2148230957,2147205979,713,4,12,29508
1341870229,5809,407.6700134277344000,8.8156003952026370,34.1450996398925800,131.0173034667968800,530.2501831054688000,8.8157043457031250,42.5271110534668000,50,111,92,80,75,15360,2147741065,2147421632,2148001929,2147875062,2147621339,2147098349,2148226953,2147208256,602,4,12,2838
1341870320,5807,396.9800109863281000,8.9830999374389650,34.1381988525390600,143.8166961669922000,525.3549804687500000,8.9707965850830080,41.3269882202148440,50,107,91,81,75,15362,2147742262,2147422784,2148000374,2147872694,2147619355,2147096585,2148224640,2147208320,337,4,13,25471
1341870439,5809,384.0100097656250000,9.0979995727539060,34.1357002258300800,151.7059020996093800,521.8004760742188000,9.0832939147949220,40.6154518127441400,50,110,89,81,76,15366,2147739949,2147421302,2148000402,2147875858,2147620388,2147098907,2148227849,2147207488,2156,4,13,30883
1341870554,5806,373.5199890136719000,9.4392995834350590,34.1430015563964840,156.2108001708984400,511.0690002441406000,9.4223785400390620,40.0722999572753900,50,109,91,80,76,15359,2147740708,2147420004,2147999030,2147877723,2147618715,2147097545,2148226386,2147205933,2636,4,13,43363
1341870683,5808,362.9200134277344000,9.6013002395629880,34.1456985473632800,162.6036071777343800,505.2113037109375000,9.6071128845214840,39.4774398803710940,49,108,85,82,74,15362,2147740498,2147425078,2147996086,2147876096,2147617243,2147095808,2148227465,2147208914,42,4,13,48275
1341870834,5810,351.6099853515625000,9.8951997756958000,34.1451988220214840,172.4300994873047000,496.4700012207031000,9.8823299407958980,38.6025810241699200,49,109,91,80,75,15365,2147738386,2147424100,2148003565,2147873920,2147615835,2147101659,2148224320,2147210176,2441,4,14,17784
1341870973,5807,341.0299987792969000,10.0890998840332030,34.1444015502929700,183.1083984375000000,489.9312133789062500,10.0878601074218750,37.7461891174316400,50,106,89,82,73,15370,2147735451,2147425728,2148009142,2147873453,2147614454,2147104841,2148224100,2147209892,2284,4,14,42554
1341871105,5807,329.1300048828125000,10.6120004653930660,34.1594009399414060,195.1641998291015600,473.0581970214844000,10.6169099807739260,36.6736488342285160,49,109,86,80,72,15367,2147738048,2147426669,2148012946,2147873636,2147613851,2147112539,2148230884,2147210944,2095,4,13,32527
1341871220,5808,317.5899963378906000,11.1031999588012700,34.1759986877441400,197.6452026367187500,457.8626098632812500,11.0918397903442380,36.2672996520996100,49,108,87,81,71,15365,2147738249,2147425316,2148019492,2147873920,2147607917,2147115081,2148227419,2147205851,1569,4,13,53845
1341871337,5808,306.7200012207031000,11.3579998016357420,34.1912994384765600,201.4091033935547000,449.5255126953125000,11.3518295288085940,35.8987312316894500,49,107,90,80,71,15367,2147734436,2147433728,2148029860,2147874395,2147610422,2147116662,2148228434,2147208512,849,4,14,8279
1341871476,5810,295.2799987792969000,12.0296001434326170,34.2298011779785160,210.8925018310547000,427.9289855957031000,12.0235099792480470,34.9885482788085940,48,107,90,80,70,15365,2147735963,2147435483,2148044781,2147872301,2147606537,2147125101,2148230491,2147208740,1381,4,14,27021
1341871615,5809,285.1400146484375000,12.8753004074096680,34.2789993286132800,210.8695068359375000,401.1976928710937500,12.8516302108764650,34.5694808959960940,48,106,90,80,68,15363,2147732150,2147430290,2148029714,2147874934,2147604379,2147127058,2148223972,2147212022,785,4,13,8895
1341871762,5807,272.8599853515625000,13.5043001174926760,34.3274002075195300,211.9295959472656200,380.6187133789062500,13.4869699478149410,34.1912307739257800,49,107,88,81,69,15362,2147728000,2147432064,2148020132,2147872411,2147597504,2147130934,2148215158,2147212370,525,4,13,25653
1341871877,5810,261.6499938964844000,14.2548999786376950,34.3734016418457000,206.9443969726562500,356.1460876464844000,14.2404003143310550,34.1052207946777340,49,107,85,81,69,15364,2147728722,2147463058,2148124516,2147870939,2147595849,2147159286,2148265435,2147213184,442,4,13,61798
1341871994,5810,250.5399932861328000,14.6126003265380860,34.4072990417480500,204.3988037109375000,344.3414001464844000,14.6030998229980470,34.0760192871093750,49,105,90,80,69,15363,2147728960,2147477138,2148139949,2147874276,2147591259,2147169142,2148268452,2147216475,3443,3,14,20131
1341872109,5810,238.8699951171875000,15.5114002227783200,34.4905014038085940,203.6795959472656200,315.1155090332031000,15.4994001388549800,33.6829910278320300,50,106,88,81,69,15361,2147727689,2147511588,2148216009,2147875355,2147595940,2147190884,2148304493,2147220562,674,3,14,16800
1341872224,5806,228.2700042724609400,16.1728000640869140,34.5694007873535160,205.5735931396484400,293.7575073242187500,16.1531906127929700,33.2604713439941400,49,109,86,80,66,15355,2147731035,2147504137,2148185362,2147873581,2147590802,2147199332,2148278345,2147221449,633,4,13,51292
1341872354,5808,217.5000000000000000,16.9001007080078120,34.6469993591308600,206.3424987792968800,270.0668945312500000,16.8775005340576170,32.8749694824218750,50,110,87,81,67,15356,2147762413,2147664969,2148514788,2147876297,2147602121,2147280393,2148435657,2147234368,1760,3,13,43160
1341872517,5811,207.1100006103515600,18.0046997070312500,34.7690010070800800,206.2503967285156200,235.1118927001953000,17.9452304840087900,32.3850097656250000,53,106,88,81,67,15350,2147790564,2147742994,2148643821,2147873572,2147607085,2147336475,2148498212,2147241142,3003,3,15,26844
1341872748,5811,198.8399963378906200,18.7154006958007800,34.8644981384277340,212.6304931640625000,210.1813964843750000,18.7065906524658200,31.6850700378417970,59,108,89,80,65,15346,2147838747,2147874889,2148852818,2147874130,2147619611,2147418779,2148591213,2147246811,2856,4,15,26266
1341872851,5810,194.7599945068359400,18.9885997772216800,34.9030990600585940,214.2420043945312500,201.8231048583984400,18.9618892669677730,31.4834499359130860,58,110,86,81,65,15342,2147872246,2147947254,2148967780,2147874477,2147633737,2147463277,2148649782,2147252379,3452,3,15,13164
1341872951,5806,190.1699981689453000,19.4111995697021500,34.9648017883300800,217.7850952148437500,187.7048034667968800,19.3932495117187500,31.1035099029541000,61,108,89,81,65,15344,2147919168,2148049325,2149125129,2147875547,2147652470,2147530203,2148727680,2147259785,1016,3,15,41739
1341873030,5810,186.8200073242187500,19.9440002441406250,35.0349998474121100,220.2400970458984400,170.6985931396484400,19.9131393432617200,30.7474403381347660,65,110,87,80,62,15336,2147954057,2148120960,2149231707,2147877942,2147668416,2147575670,2148779062,2147263003,1196,3,15,22142
1341873157,5807,183.2799987792968800,20.2819995880126950,35.0792007446289060,220.3587951660156200,159.2935943603515600,20.2620391845703120,30.5895309448242200,69,107,88,82,63,15332,2148002880,2148205558,2149371172,2147880484,2147690688,2147634304,2148846381,2147268544,2822,3,15,58492
1341873284,5808,179.0500030517578000,20.6879005432128900,35.1128997802734400,222.7234039306640600,146.2003936767578000,20.6628704071044920,30.2956790924072270,73,112,91,82,64,15322,2148089161,2148362605,2149611236,2147879250,2147728310,2147726592,2148954486,2147277577,3498,3,15,51468
1341873399,5808,174.6799926757812500,21.4703998565673830,35.2216987609863300,226.7510986328125000,122.6732025146484400,21.3840904235839840,29.7876605987548830,83,117,91,83,63,15311,2148176649,2148512896,2149844480,2147881243,2147771081,2147823570,2149059785,2147285796,2273,2,15,10051
1341873502,5809,170.9199981689453000,21.5753993988037100,35.2391014099121100,231.3619995117187500,115.9365005493164000,21.5908603668212900,29.4770698547363280,87,113,88,82,62,15309,2148283190,2148708187,2150146889,2147885321,2147824594,2147935232,2149198089,2147297984,2205,3,15,8073
1341873593,5809,166.6300048828125000,21.7460002899169920,35.2351989746093750,232.6159973144531200,110.9393997192382800,21.7443294525146500,29.3531303405761720,88,117,92,83,62,15299,2148456950,2149013120,2150613723,2147886985,2147905161,2148111021,2149413686,2147311844,3303,3,16,15627
1341873672,5806,161.8300018310547000,21.7863006591796880,35.2256011962890600,232.9895019531250000,109.7554016113281200,21.7807006835937500,29.3201198577880860,93,118,91,83,62,15297,2148619958,2149269284,2150975643,2147889453,2147986633,2148258038,2149566957,2147322834,113,3,16,64214
1341873727,5805,158.4700012207031200,21.7915000915527340,35.2197990417480500,232.5932006835937500,109.4966964721679700,21.7886505126953120,29.3355102539062500,93,118,91,84,61,15292,2148812361,2149574966,2151418441,2147892278,2148077293,2148413842,2149767515,2147342966,296,3,15,40245
1341873794,5807,154.4600067138672000,21.8924999237060550,35.2120018005371100,232.2384033203125000,106.4760971069336000,21.8814601898193360,29.3136100769042970,98,117,94,83,62,15287,2149078034,2149975113,2151988461,2147897526,2148195547,2148628242,2150019099,2147359195,647,3,15,1722
1341873875,5807,150.3800048828125000,21.9734992980957030,35.2142982482910160,231.6188049316406200,103.6258010864257800,21.9690704345703120,29.3065605163574220,97,120,90,84,62,15271,2149413851,2150454793,2152620196,2147902244,2148346907,2148875757,2150296694,2147381659,161,2,15,61737
1341873954,5806,146.6999969482422000,22.1975002288818360,35.2486000061035160,232.6855926513672000,96.5736694335937500,22.1859493255615230,29.1658306121826170,102,122,90,83,61,15275,2149847387,2151064548,2153436013,2147911497,2148550637,2149185298,2150659410,2147411154,2578,3,15,52656
1341874045,5803,142.6799926757812500,22.3568000793457030,35.2661018371582000,237.2216033935547000,91.4266433715820300,22.3443393707275400,28.8885707855224600,98,117,92,82,60,15264,2150188754,2151475108,2153909558,2147914486,2148713097,2149387145,2150830016,2147424356,1772,2,15,23049
1341874136,5818,138.6399993896484400,22.4664993286132800,35.2961006164550800,242.4990997314453000,87.8167877197265600,22.4554901123046880,28.6028003692626950,95,117,90,82,60,15280,2149410432,2150007533,2151530852,2147897737,2148423561,2148722916,2149924132,2147356836,1788,2,16,38649
1341874230,5807,134.3099975585937500,22.5168991088867200,35.3005981445312500,244.1869964599609400,85.9866409301757800,22.5118598937988280,28.5042800903320300,96,118,92,83,60,15279,2150705069,2151976630,2154340489,2147930852,2148985316,2149594523,2150905033,2147438162,1588,3,16,51334
1341874309,5806,130.7700042724609400,22.5753002166748050,35.3053016662597660,245.5128936767578000,84.0229263305664000,22.5723495483398440,28.4207801818847660,96,117,92,83,61,15279,2152055744,2153866733,2156879753,2147959378,2149689664,2150673133,2152096859,2147538075,1764,2,16,20402
1341874400,5809,126.9899978637695300,22.6872997283935550,35.3139991760253900,247.3489074707031200,80.5702362060546900,22.6787490844726560,28.2967605590820300,97,118,93,84,59,15277,2153240146,2155306742,2158490121,2147982656,2150443894,2151695936,2153152009,2147621321,1899,2,16,14150
1341874517,5809,122.9700012207031200,22.7726993560791000,35.3070983886718750,248.4226074218750000,77.5435028076171900,22.7720603942871100,28.2120494842529300,102,116,89,84,59,15266,2149960758,2150329161,2151494994,2147908818,2148759616,2148869659,2149840429,2147362066,1252,2,16,62250
1341874656,5809,119.0599975585937500,22.9015007019042970,35.3011016845703100,248.7015991210937500,73.6536483764648400,22.8920307159423830,28.1514492034912100,111,122,89,85,59,15247,2156801627,2159684461,2163561298,2148069421,2152448109,2154180406,2155590930,2147831634,3536,3,16,52809
1341874795,5809,115.1100006103515600,22.9244995117187500,35.2859992980957000,248.7785949707031200,72.6750869750976600,22.9222202301025400,28.1358604431152340,115,120,93,85,58,15226,2159768182,2163340269,2167761243,2148146185,2154069942,2156179209,2157577234,2148005339,3549,2,16,25463
1341874910,5807,110.2399978637695300,23.0324993133544920,35.2621994018554700,247.2418060302734400,69.2793426513671900,23.0270195007324220,28.1605701446533200,131,122,93,83,59,15207,2160395136,2163703104,2167580873,2148194779,2154230125,2156008283,2157148553,2147997056,2401,2,16,54930
1341874989,5807,106.3600006103515600,23.1016998291015620,35.2667999267578100,247.4353027343750000,67.1151962280273400,23.0938301086425780,28.1253299713134770,121,120,90,83,61,15220,2165605321,2169976365,2174649078,2148358912,2157142582,2159554066,2160625536,2148312841,1491,2,16,13977
1341875068,5811,102.5100021362304700,23.1334991455078120,35.2661018371582000,248.1255950927734400,66.0500030517578100,23.1267204284667970,28.0819091796875000,116,122,92,84,60,15221,2168460854,2173080329,2177739337,2148484754,2158869284,2161378651,2162219684,2148466633,1004,2,16,12054
1341875147,5809,98.7900009155273400,23.1434001922607420,35.2456016540527340,247.7646942138672000,65.4546966552734400,23.1451091766357420,28.0903091430664060,111,120,92,83,59,15224,2172667382,2177810550,2182574171,2148653549,2161123126,2163844196,2164405897,2148689389,1326,3,16,7461
1341875205,5809,96.5199966430664000,23.2710990905761720,35.2303009033203100,246.0809936523437500,61.9563713073730500,23.2531795501709000,28.1202201843261720,97,122,89,86,60,15223,2175096978,2180257792,2184490560,2148742299,2162457792,2165200850,2165514889,2148816621,1902,2,16,36190
1341875260,5816,94.9300003051757800,23.4057998657226560,35.2316017150878900,245.6786041259765600,57.4465408325195300,23.3925704956054700,28.0816707611084000,92,123,93,83,59,15230,2177807780,2183298971,2187456448,2148882450,2163804736,2166639323,2166776310,2148951533,2710,2,16,52433
1341875339,5806,93.3700027465820300,23.4592990875244140,35.2276000976562500,245.9624938964843800,55.4974899291992200,23.4528408050537100,28.0451698303222660,91,125,91,84,58,15205,2181251465,2187065536,2190810240,2148975588,2165779401,2168775232,2168591149,2149134409,2523,2,16,43921
1341875454,5811,91.5599975585937500,23.5510997772216800,35.2202987670898440,245.7608947753906200,52.6308517456054700,23.5415096282959000,28.0183391571044920,87,125,92,85,60,15219,2185931392,2192081654,2195482806,2149177673,2168602322,2171808246,2171167808,2149382016,1540,2,16,1485
1341875569,5808,89.4899978637695300,23.8962001800537100,35.2065010070800800,244.3195953369140600,42.8606986999511700,23.8440208435058600,27.9606494903564450,77,132,91,85,57,15216,2185262738,2190208374,2192144310,2149117723,2168720914,2171311241,2170067593,2149281152,737,2,16,36263
1341875684,5806,87.4199981689453100,24.1558990478515620,35.2433013916015600,244.0066986083984400,33.2614707946777340,24.1416893005371100,27.8557605743408200,75,126,93,85,56,15211,2193105078,2199053760,2201175616,2149520813,2173819410,2176978688,2174952960,2149744246,398,2,16,57819
1341875775,5808,85.1999969482421900,24.1823997497558600,35.2258987426757800,244.1732940673828000,32.0401000976562500,24.1795902252197270,27.8332099914550780,75,125,91,86,59,15213,2197614409,2203834313,2205905572,2149876617,2177016210,2180333668,2177670308,2150034752,3440,2,16,15005
1341875854,5809,82.1399993896484400,24.2176990509033200,35.2187004089355500,244.1228027343750000,30.5491409301757800,24.2258796691894530,27.8171195983886720,74,125,93,84,56,15212,2204598628,2211072841,2212694637,2150369453,2182284653,2185802889,2182038729,2150497746,2656,1,16,716
1341875909,5808,79.1200027465820300,24.3297004699707030,35.1862983703613300,244.2144927978515600,27.5604591369628900,24.3186893463134770,27.7762107849121100,72,126,94,86,57,15224,2208643017,2214893741,2215968960,2150749979,2186248777,2189725604,2184956653,2150820891,2090,2,16,54412
1341875964,5805,76.2900009155273400,24.3722000122070300,35.1828994750976560,244.4369049072265600,26.1058998107910160,24.3638801574707030,27.7486705780029300,71,127,96,85,58,15216,2217860525,2224393499,2225000118,2151466907,2192724690,2196222948,2189897536,2151366619,1611,2,16,2376
1341876019,5805,73.6800003051757800,24.4542007446289060,35.1749992370605500,244.4667053222656200,23.2544002532959000,24.4524898529052730,27.7123298645019530,71,126,93,86,56,15210,2224455524,2231282971,2231809069,2152272932,2197467876,2200765659,2193372096,2151787684,570,2,16,3619
1341876074,5810,71.4199981689453100,24.6371994018554700,35.1586990356445300,244.1517028808593800,18.1337394714355470,24.6117401123046880,27.6632003784179700,70,127,92,86,58,15215,2228126034,2234639908,2234333686,2152736201,2201908763,2204736630,2196081261,2152102098,3372,2,16,52890
1341876129,5808,69.7399978637695300,24.7124996185302730,35.1503982543945300,244.0677032470703000,15.3976001739501950,24.6968898773193360,27.6332206726074220,70,126,91,85,58,15214,2232706112,2239573705,2239033545,2153311177,2205775552,2208507593,2198807360,2152469942,2533,2,16,6824
1341876199,5808,68.5999984741211000,24.7605991363525400,35.1447982788085940,243.9436950683593800,13.5623397827148440,24.7540206909179700,27.6161308288574220,70,125,92,87,57,15218,2236266733,2243386240,2242982134,2153813732,2209335844,2212116982,2201569481,2152795090,2062,2,16,39856
1341876613,5809,66.1399993896484400,25.3159999847412100,35.0961990356445300,240.9205017089843800,-3.2183289527893066,25.2773303985595700,27.5431594848632800,68,126,92,85,55,15169,2241499072,2247454080,2245438427,2154549129,2218412672,2219677284,2205973184,2153203392,253,1,15,7667
1341876919,5803,64.6600036621093800,25.4766006469726560,35.0928001403808600,238.1757965087890600,-9.5589990615844730,25.4755001068115230,27.5872898101806640,63,119,92,84,58,15206,2248745837,2256409828,2254397357,2155294354,2229127277,2229293129,2211982646,2153880841,2657,2,16,36008
1341877128,5810,61.6699981689453100,25.4932003021240230,35.0932998657226560,237.6782073974609400,-10.1069898605346680,25.4926395416259770,27.6028594970703120,60,117,94,84,53,15210,2260608484,2269206838,2266958198,2157516489,2251447661,2248627629,2223240786,2155075620,2158,2,16,57516
1341877183,5807,59.6399993896484400,25.4957008361816400,35.0927009582519500,237.7319946289062500,-10.2120304107666020,25.4959201812744140,27.5991306304931640,58,118,91,85,57,15205,2265338578,2273154861,2270050761,2158522843,2264541275,2260284205,2230606985,2155844955,2262,2,16,19382
1341877238,5811,57.3600006103515600,25.4988994598388670,35.0929985046386700,237.7819976806640600,-10.2849998474121100,25.4981994628906250,27.5958900451660160,58,121,92,83,55,15210,2274868397,2283852480,2280741796,2160322724,2278207396,2272727241,2238846080,2156863954,2196,2,16,61793
1341877293,5810,54.8100013732910160,25.4999008178710940,35.0926017761230500,237.8282928466797000,-10.3621101379394530,25.5006198883056640,27.5929393768310550,57,119,90,85,55,15210,2283912941,2293519817,2290621403,2162780708,2290909796,2283619602,2245329481,2157774427,2204,2,16,28687
1341877348,5805,52.0099983215332000,25.5002002716064450,35.0932006835937500,237.7402038574218800,-10.3908195495605470,25.5015106201171880,27.5965595245361330,57,117,92,84,57,15214,2293186377,2303194459,2300357878,2165805494,2304088320,2295639113,2253020050,2158983433,2070,2,16,19277
1341877403,5807,48.9900016784668000,25.4981994628906250,35.0937995910644500,237.9272003173828000,-10.4002704620361330,25.5018100738525400,27.5881404876709000,56,120,91,83,52,15209,2305782784,2316587200,2314379675,2170405476,2322510189,2312241810,2264508233,2160897865,1902,2,16,51397
1341877461,5805,45.6100006103515600,25.5041007995605470,35.0929985046386700,237.9541015625000000,-10.5851602554321290,25.5075893402099600,27.5845699310302730,56,117,92,85,59,15212,2322755849,2334278692,2332769033,2177017664,2347561142,2334892160,2279488310,2163396187,1748,2,16,2410
1341877516,5807,42.5400009155273440,25.5058002471923830,35.0931015014648440,238.0032958984375000,-10.5962696075439450,25.5079402923584000,27.5821704864501950,55,117,91,84,61,15210,2282729033,2287723008,2283279689,2170739949,2309864384,2295563456,2249263186,2159862089,1674,1,16,52403
1341877571,5808,39.4799995422363300,25.5072002410888670,35.0931015014648440,238.1159973144531200,-10.7669095993042000,25.5132808685302730,27.5750999450683600,55,116,93,84,59,15215,2345251766,2357004461,2356171446,2190029842,2379302043,2362074605,2296664923,2167500571,1394,2,16,47846
1341877626,5804,36.4000015258789060,25.5119991302490230,35.0933990478515600,238.1015014648437500,-11.0414896011352540,25.5218696594238280,27.5724697113037100,55,117,91,83,52,15209,2359960219,2372626258,2373191323,2199043035,2401438473,2382518500,2311299172,2170767579,1305,2,17,47662
1341877681,5808,33.2700004577636700,25.5170993804931640,35.0937995910644500,238.1427001953125000,-11.2283496856689450,25.5277099609375000,27.5683803558349600,53,117,91,84,60,15199,2368608731,2381163328,2381727122,2208422098,2425240420,2403614006,2324591954,2173345691,1508,2,16,37684
1341877736,5808,30.0499992370605470,25.5151996612548830,35.0942993164062500,238.2678985595703000,-11.3838396072387700,25.5325794219970700,27.5608596801757800,54,117,91,84,54,15211,2340840530,2348858889,2347157174,2204549202,2397909824,2372869952,2300367981,2171189796,1623,3,16,28581
1341877794,5807,26.2299995422363280,25.5153999328613280,35.0948982238769500,238.2205047607422000,-11.2363195419311520,25.5279598236084000,27.5647907257080080,53,117,93,84,54,15217,2330130413,2336931840,2335726006,2211026944,2377342509,2350673243,2282302573,2169986614,1707,4,15,30726
1341877849,5816,22.6100006103515620,25.5212993621826170,35.0940017700195300,238.1224060058593800,-11.1148595809936520,25.5241603851318360,27.5706596374511720,54,117,90,83,57,15214,2413301056,2429672457,2434883995,2263722560,2451752201,2420546962,2331955977,2184225856,1838,1,16,20777
